| time (UTC) | temp F | wind direction | speed MPH | gust MPH | rain 1hr in | rain 24hr in | rain mn in | humidity % | barometer mb |
| 20260510191533 | 81 | 0 | 2.0 | 4.0 | 0.00 | 0.01 | 0.01 | 63 | 1016.1 |
| 20260510190048 | 80 | 136 | 3.0 | 7.0 | 0.00 | 0.01 | 0.01 | 68 | 1016.1 |
| 20260510184533 | 79 | 118 | 3.0 | 8.0 | 0.00 | 0.01 | 0.01 | 69 | 1016.4 |
| 20260510183033 | 78 | 0 | 3.0 | 8.0 | 0.00 | 0.01 | 0.01 | 69 | 1016.5 |
| 20260510181534 | 78 | 0 | 0.0 | 7.0 | 0.00 | 0.01 | 0.01 | 73 | 1016.7 |
| 20260510180032 | 77 | 0 | 1.0 | 6.0 | 0.00 | 0.01 | 0.01 | 74 | 1016.8 |
| 20260510174534 | 76 | 17 | 0.0 | 6.0 | 0.00 | 0.03 | 0.01 | 76 | 1017.1 |
| 20260510173044 | 75 | 0 | 1.0 | 8.0 | 0.00 | 0.03 | 0.01 | 75 | 1017.4 |
| 20260510171534 | 75 | 81 | 0.0 | 5.0 | 0.00 | 0.03 | 0.01 | 78 | 1017.5 |
| 20260510170032 | 74 | 100 | 1.0 | 7.0 | 0.01 | 0.03 | 0.01 | 80 | 1017.7 |
| 20260510164530 | 73 | 332 | 0.0 | 6.0 | 0.01 | 0.07 | 0.01 | 81 | 1017.8 |
| 20260510163038 | 73 | 0 | 0.0 | 4.0 | 0.01 | 0.07 | 0.01 | 80 | 1017.9 |
| 20260510161536 | 73 | 345 | 1.0 | 8.0 | 0.01 | 0.07 | 0.01 | 81 | 1018.0 |
| 20260510160032 | 72 | 40 | 0.0 | 5.0 | 0.00 | 0.06 | 0.00 | 84 | 1018.1 |
| 20260510154532 | 71 | 67 | 0.0 | 4.0 | 0.00 | 0.22 | 0.00 | 85 | 1018.3 |
| 20260510153047 | 70 | 0 | 0.0 | 4.0 | 0.00 | 0.22 | 0.00 | 86 | 1018.1 |
| 20260510151533 | 70 | 0 | 0.0 | 4.0 | 0.00 | 0.22 | 0.00 | 86 | 1017.8 |
| 20260510150039 | 69 | 0 | 0.0 | 5.0 | 0.00 | 0.22 | 0.00 | 90 | 1017.7 |
| 20260510144541 | 69 | 0 | 0.0 | 4.0 | 0.00 | 0.32 | 0.00 | 92 | 1017.9 |
| 20260510143037 | 68 | 0 | 0.0 | 2.0 | 0.00 | 0.32 | 0.00 | 95 | 1017.9 |
| 20260510141532 | 67 | 0 | 0.0 | 2.0 | 0.00 | 0.32 | 0.00 | 96 | 1018.0 |
| 20260510140036 | 66 | 0 | 0.0 | 0.0 | 0.00 | 0.32 | 0.00 | 96 | 1017.8 |
| 20260510134530 | 66 | 0 | 0.0 | 1.0 | 0.00 | 0.50 | 0.00 | 96 | 1017.6 |
| 20260510133032 | 66 | 0 | 0.0 | 3.0 | 0.00 | 0.50 | 0.00 | 97 | 1017.6 |
| 20260510131532 | 65 | 0 | 1.0 | 2.0 | 0.00 | 0.50 | 0.00 | 96 | 1017.4 |
| 20260510130035 | 65 | 0 | 0.0 | 2.0 | 0.00 | 0.50 | 0.00 | 97 | 1017.3 |
| 20260510124534 | 65 | 0 | 0.0 | 1.0 | 0.00 | 0.58 | 0.00 | 97 | 1017.1 |
| 20260510123033 | 64 | 0 | 0.0 | 1.0 | 0.00 | 0.58 | 0.00 | 97 | 1016.8 |
| 20260510121531 | 64 | 0 | 0.0 | 1.0 | 0.00 | 0.58 | 0.00 | 97 | 1016.7 |
| 20260510120036 | 64 | 0 | 0.0 | 1.0 | 0.00 | 0.58 | 0.00 | 97 | 1016.5 |
| 20260510114540 | 64 | 0 | 0.0 | 2.0 | 0.00 | 0.58 | 0.00 | 97 | 1016.3 |
| 20260510113032 | 63 | 0 | 0.0 | 0.0 | 0.00 | 0.58 | 0.00 | 97 | 1015.9 |
| 20260510111533 | 63 | 0 | 0.0 | 0.0 | 0.00 | 0.58 | 0.00 | 96 | 1015.5 |
| 20260510110031 | 62 | 0 | 0.0 | 0.0 | 0.00 | 0.58 | 0.00 | 97 | 1015.3 |
| 20260510104532 | 62 | 0 | 0.0 | 0.0 | 0.00 | 0.58 | 0.00 | 96 | 1015.0 |
| 20260510103034 | 62 | 0 | 0.0 | 0.0 | 0.00 | 0.58 | 0.00 | 96 | 1015.0 |
| 20260510101535 | 62 | 0 | 0.0 | 0.0 | 0.00 | 0.58 | 0.00 | 96 | 1014.8 |
| 20260510100051 | 62 | 0 | 0.0 | 0.0 | 0.00 | 0.58 | 0.00 | 96 | 1014.7 |
| 20260510094546 | 62 | 0 | 0.0 | 0.0 | 0.00 | 0.58 | 0.00 | 96 | 1014.6 |
| 20260510093034 | 62 | 0 | 0.0 | 0.0 | 0.00 | 0.58 | 0.00 | 96 | 1014.4 |
| 20260510091534 | 63 | 0 | 0.0 | 0.0 | 0.00 | 0.58 | 0.00 | 96 | 1014.3 |
| 20260510090042 | 63 | 0 | 0.0 | 0.0 | 0.00 | 0.58 | 0.00 | 96 | 1014.0 |
| 20260510084532 | 63 | 0 | 0.0 | 0.0 | 0.00 | 0.58 | 0.00 | 96 | 1014.0 |
| 20260510083032 | 63 | 0 | 0.0 | 1.0 | 0.00 | 0.58 | 0.00 | 96 | 1014.1 |
| 20260510081544 | 63 | 0 | 0.0 | 0.0 | 0.00 | 0.58 | 0.00 | 96 | 1013.9 |
| 20260510080033 | 63 | 0 | 0.0 | 0.0 | 0.00 | 0.58 | 0.00 | 96 | 1014.0 |
| 20260510074530 | 63 | 0 | 0.0 | 1.0 | 0.00 | 0.58 | 0.00 | 96 | 1014.0 |
| 20260510073033 | 63 | 0 | 0.0 | 0.0 | 0.00 | 0.58 | 0.00 | 96 | 1013.9 |
| 20260510071540 | 63 | 0 | 0.0 | 0.0 | 0.00 | 0.58 | 0.00 | 96 | 1013.6 |
| 20260510070039 | 63 | 0 | 0.0 | 0.0 | 0.00 | 0.58 | 0.00 | 96 | 1013.5 |
| 20260510064537 | 63 | 0 | 0.0 | 0.0 | 0.00 | 0.58 | 0.00 | 96 | 1013.2 |
| 20260510063035 | 63 | 0 | 0.0 | 0.0 | 0.00 | 0.58 | 0.00 | 96 | 1013.2 |
| 20260510061532 | 63 | 0 | 0.0 | 1.0 | 0.00 | 0.58 | 0.00 | 96 | 1013.3 |
| 20260510060032 | 64 | 0 | 0.0 | 0.0 | 0.00 | 0.58 | 0.00 | 96 | 1013.5 |
| 20260510054532 | 64 | 0 | 0.0 | 2.0 | 0.00 | 0.58 | 0.00 | 96 | 1013.3 |
| 20260510053038 | 64 | 0 | 0.0 | 1.0 | 0.00 | 0.58 | 0.00 | 96 | 1013.4 |
| 20260510051535 | 64 | 0 | 0.0 | 2.0 | 0.00 | 0.58 | 0.00 | 96 | 1013.8 |
| 20260510050034 | 64 | 0 | 0.0 | 1.0 | 0.00 | 0.58 | 0.00 | 96 | 1014.1 |
| 20260510044535 | 65 | 0 | 0.0 | 1.0 | 0.00 | 0.58 | 0.58 | 96 | 1014.1 |
| 20260510043034 | 65 | 0 | 0.0 | 4.0 | 0.00 | 0.58 | 0.58 | 96 | 1014.1 |
| 20260510041534 | 65 | 0 | 0.0 | 5.0 | 0.00 | 0.58 | 0.58 | 96 | 1014.3 |
| 20260510040031 | 65 | 0 | 0.0 | 0.0 | 0.00 | 0.58 | 0.58 | 96 | 1014.7 |
| 20260510034541 | 65 | 0 | 0.0 | 0.0 | 0.00 | 0.58 | 0.58 | 96 | 1014.6 |
| 20260510033032 | 65 | 0 | 0.0 | 0.0 | 0.00 | 0.58 | 0.58 | 96 | 1014.7 |
| 20260510031531 | 65 | 0 | 0.0 | 0.0 | 0.00 | 0.58 | 0.58 | 96 | 1014.7 |
| 20260510030031 | 65 | 0 | 0.0 | 0.0 | 0.00 | 0.58 | 0.58 | 96 | 1014.4 |
| 20260510024531 | 66 | 0 | 0.0 | 0.0 | 0.00 | 0.58 | 0.58 | 95 | 1014.2 |
| 20260510023034 | 66 | 0 | 0.0 | 0.0 | 0.00 | 0.58 | 0.58 | 95 | 1013.8 |
| 20260510021535 | 66 | 0 | 0.0 | 2.0 | 0.00 | 0.58 | 0.58 | 95 | 1014.3 |
| 20260510020034 | 66 | 0 | 0.0 | 0.0 | 0.00 | 0.58 | 0.58 | 95 | 1013.9 |
| 20260510014536 | 66 | 0 | 0.0 | 0.0 | 0.00 | 0.58 | 0.58 | 95 | 1013.9 |
| 20260510013032 | 66 | 0 | 0.0 | 0.0 | 0.00 | 0.58 | 0.58 | 95 | 1013.7 |
| 20260510011540 | 66 | 0 | 0.0 | 0.0 | 0.00 | 0.58 | 0.58 | 95 | 1013.4 |
| 20260510010030 | 66 | 0 | 0.0 | 0.0 | 0.00 | 0.58 | 0.58 | 94 | 1013.6 |
| 20260510004538 | 66 | 0 | 0.0 | 0.0 | 0.00 | 0.60 | 0.58 | 95 | 1013.9 |
| 20260510003034 | 66 | 0 | 0.0 | 0.0 | 0.00 | 0.60 | 0.58 | 94 | 1013.9 |
| 20260510001534 | 67 | 0 | 0.0 | 0.0 | 0.00 | 0.60 | 0.58 | 94 | 1013.3 |
| 20260510000055 | 67 | 0 | 0.0 | 1.0 | 0.00 | 0.60 | 0.58 | 94 | 1013.0 |
| 20260509234548 | 67 | 0 | 0.0 | 1.0 | 0.00 | 0.60 | 0.58 | 93 | 1013.4 |
| 20260509233035 | 67 | 0 | 0.0 | 2.0 | 0.00 | 0.60 | 0.58 | 93 | 1013.1 |
| 20260509231534 | 67 | 0 | 1.0 | 4.0 | 0.00 | 0.60 | 0.58 | 94 | 1012.7 |
| 20260509230036 | 67 | 0 | 0.0 | 0.0 | 0.00 | 0.60 | 0.58 | 93 | 1013.0 |
| 20260509224532 | 67 | 0 | 0.0 | 0.0 | 0.00 | 0.63 | 0.58 | 93 | 1012.8 |
| 20260509223034 | 66 | 0 | 0.0 | 1.0 | 0.00 | 0.63 | 0.58 | 93 | 1012.7 |
| 20260509221534 | 67 | 0 | 0.0 | 4.0 | 0.00 | 0.63 | 0.58 | 93 | 1012.5 |
| 20260509220033 | 66 | 0 | 0.0 | 0.0 | 0.00 | 0.63 | 0.58 | 93 | 1012.7 |
| 20260509214534 | 67 | 0 | 0.0 | 0.0 | 0.00 | 0.76 | 0.58 | 93 | 1012.8 |
| 20260509213038 | 66 | 0 | 0.0 | 1.0 | 0.00 | 0.76 | 0.58 | 92 | 1012.7 |
| 20260509211533 | 66 | 0 | 0.0 | 3.0 | 0.00 | 0.76 | 0.58 | 92 | 1012.7 |
| 20260509210041 | 67 | 0 | 0.0 | 4.0 | 0.00 | 0.76 | 0.58 | 92 | 1012.6 |
| 20260509204539 | 67 | 0 | 0.0 | 6.0 | 0.00 | 0.88 | 0.58 | 93 | 1012.5 |
| 20260509203033 | 66 | 0 | 0.0 | 7.0 | 0.00 | 0.88 | 0.58 | 93 | 1012.5 |
| 20260509201532 | 66 | 0 | 0.0 | 7.0 | 0.00 | 0.88 | 0.58 | 94 | 1012.1 |
| 20260509200036 | 66 | 0 | 0.0 | 8.0 | 0.00 | 0.88 | 0.58 | 93 | 1012.1 |
| 20260509194537 | 66 | 0 | 3.0 | 8.0 | 0.00 | 0.91 | 0.58 | 93 | 1012.1 |
| 20260509193034 | 66 | 325 | 0.0 | 2.0 | 0.00 | 0.91 | 0.58 | 94 | 1011.7 |